DW4078 Weather Reports


Display with metric or nautical units.
time (UTC)temp
F
wind
direction
speed
MPH
gust
MPH
rain 1hr
in
rain 24hr
in
rain mn
in
humidity
%
barometer
mb
20260509175306 66 204 5.0 14.0 0.00 0.39 0.15 59 1006.4
20260509175203 66 205 5.0 11.0 0.00 0.39 0.15 60 1006.3
20260509175103 66 206 5.0 11.0 0.00 0.39 0.15 61 1006.3
20260509175003 66 196 5.0 11.0 0.00 0.39 0.15 60 1006.3
20260509174924 67 189 5.0 11.0 0.00 0.39 0.15 60 1006.4
20260509174803 67 180 4.0 10.0 0.00 0.39 0.15 59 1006.4
20260509174103 67 177 4.0 13.0 0.00 0.39 0.15 60 1006.2
20260509173803 67 174 4.0 13.0 0.00 0.39 0.15 60 1006.5
20260509173703 66 177 5.0 13.0 0.00 0.39 0.15 60 1006.4
20260509173603 66 180 5.0 13.0 0.00 0.39 0.15 60 1006.3
20260509173324 67 186 5.0 13.0 0.00 0.39 0.15 59 1006.5
20260509173203 66 176 4.0 11.0 0.00 0.39 0.15 60 1006.4
20260509173103 66 175 4.0 11.0 0.00 0.39 0.15 60 1006.5
20260509173003 67 175 4.0 11.0 0.00 0.39 0.15 60 1006.4
20260509172803 67 182 4.0 11.0 0.00 0.39 0.15 59 1006.3
20260509172703 67 183 4.0 11.0 0.00 0.39 0.15 60 1006.4
20260509172602 67 183 4.0 10.0 0.00 0.39 0.15 61 1006.4
20260509172306 66 173 4.0 11.0 0.00 0.39 0.15 61 1006.5
20260509172224 66 174 4.0 11.0 0.00 0.39 0.15 62 1006.3
20260509172103 66 178 5.0 13.0 0.00 0.39 0.15 61 1006.6
20260509172003 66 180 5.0 13.0 0.00 0.39 0.15 61 1006.5
20260509171903 66 181 5.0 13.0 0.00 0.39 0.15 61 1006.4
20260509171824 66 170 5.0 13.0 0.00 0.39 0.15 60 1006.5
20260509171726 66 164 5.0 13.0 0.00 0.39 0.15 60 1006.4
20260509171603 65 162 5.0 13.0 0.00 0.39 0.15 59 1006.5
20260509171524 65 167 4.0 13.0 0.00 0.39 0.15 60 1006.2
20260509171403 65 175 4.0 13.0 0.00 0.39 0.15 60 1006.3
20260509171303 65 175 4.0 13.0 0.00 0.39 0.15 60 1006.4
20260509171203 65 176 4.0 13.0 0.00 0.39 0.15 61 1006.3
20260509171103 66 175 4.0 13.0 0.00 0.39 0.15 61 1006.4
20260509171003 66 181 4.0 10.0 0.00 0.39 0.15 63 1006.3
20260509170924 66 184 4.0 10.0 0.00 0.39 0.15 63 1006.3
20260509170824 66 196 3.0 9.0 0.00 0.39 0.15 62 1006.3
20260509170403 66 211 4.0 11.0 0.00 0.39 0.15 63 1006.5
20260509170324 65 215 4.0 11.0 0.00 0.39 0.15 64 1006.3
20260509170203 65 212 4.0 11.0 0.00 0.39 0.15 63 1006.4
20260509165903 64 207 4.0 11.0 0.00 0.39 0.15 64 1006.2
20260509165803 64 202 4.0 11.0 0.00 0.39 0.15 65 1006.2
20260509165603 64 190 4.0 11.0 0.00 0.39 0.15 64 1006.3
20260509165403 65 192 4.0 8.0 0.00 0.39 0.15 65 1006.3
20260509165103 65 189 4.0 9.0 0.00 0.39 0.15 63 1006.4
20260509164924 65 200 4.0 9.0 0.00 0.39 0.15 63 1006.4
20260509164703 65 208 4.0 9.0 0.00 0.39 0.15 64 1006.3
20260509164602 65 204 4.0 9.0 0.00 0.39 0.15 64 1006.3
20260509164403 65 194 4.0 9.0 0.00 0.39 0.15 63 1006.4
20260509164303 64 193 3.0 9.0 0.00 0.39 0.15 65 1006.3
20260509164203 64 189 3.0 9.0 0.00 0.39 0.15 63 1006.2
20260509164103 64 189 3.0 9.0 0.00 0.39 0.15 63 1006.3
20260509163903 65 169 3.0 9.0 0.00 0.39 0.15 64 1006.5
20260509163803 65 152 3.0 9.0 0.00 0.39 0.15 64 1006.5
20260509163603 65 167 3.0 9.0 0.00 0.39 0.15 63 1006.7
20260509163503 65 170 3.0 9.0 0.00 0.39 0.15 64 1006.6
20260509163403 65 173 3.0 9.0 0.00 0.39 0.15 65 1006.5
20260509163124 65 177 3.0 9.0 0.00 0.39 0.15 65 1006.6
20260509162926 65 174 3.0 9.0 0.00 0.39 0.15 63 1006.5
20260509162824 65 184 3.0 7.0 0.00 0.39 0.15 64 1006.5
20260509162603 64 187 3.0 8.0 0.00 0.39 0.15 66 1006.7
20260509162403 64 175 3.0 8.0 0.00 0.39 0.15 66 1006.7
20260509162003 64 174 4.0 10.0 0.00 0.39 0.15 67 1006.9
20260509161803 64 177 4.0 10.0 0.00 0.39 0.15 64 1006.8
20260509161603 64 178 4.0 10.0 0.00 0.39 0.15 63 1006.9
20260509161503 64 179 4.0 10.0 0.00 0.39 0.15 64 1007.0
20260509161303 64 188 4.0 10.0 0.00 0.39 0.15 65 1007.0
20260509161103 64 190 4.0 9.0 0.00 0.39 0.15 66 1007.1
20260509160903 64 190 4.0 10.0 0.00 0.39 0.15 68 1007.0
20260509160803 64 190 4.0 10.0 0.00 0.39 0.15 67 1007.1
20260509160603 64 192 4.0 10.0 0.00 0.39 0.15 69 1007.1
20260509160503 63 197 4.0 10.0 0.00 0.39 0.15 68 1007.1
20260509160403 63 195 3.0 10.0 0.00 0.39 0.15 68 1006.9
20260509160324 63 201 3.0 10.0 0.00 0.39 0.15 67 1007.2
20260509155803 62 199 3.0 10.0 0.00 0.39 0.15 69 1006.9
20260509155503 61 190 3.0 10.0 0.00 0.39 0.15 72 1007.1
20260509155403 61 194 3.0 10.0 0.00 0.39 0.15 72 1007.1
20260509155103 61 173 3.0 10.0 0.00 0.39 0.15 72 1007.2
20260509154603 62 176 3.0 10.0 0.00 0.39 0.15 71 1007.1
20260509154503 62 182 4.0 11.0 0.00 0.39 0.15 72 1007.1
20260509154203 62 180 3.0 11.0 0.00 0.39 0.15 70 1007.1
20260509154103 62 181 3.0 11.0 0.00 0.39 0.15 71 1007.1
20260509153903 61 187 3.0 11.0 0.00 0.39 0.15 71 1007.0
20260509153603 62 200 3.0 11.0 0.00 0.39 0.15 72 1007.1
20260509153403 61 203 3.0 7.0 0.00 0.39 0.15 75 1007.2
20260509153303 61 206 3.0 7.0 0.00 0.39 0.15 75 1007.1
20260509153103 60 218 3.0 7.0 0.00 0.39 0.15 76 1007.1
20260509153003 60 216 3.0 7.0 0.00 0.39 0.15 76 1007.1
20260509152903 60 209 3.0 7.0 0.00 0.39 0.15 76 1007.1
20260509152703 60 196 2.0 7.0 0.00 0.39 0.15 76 1007.0
20260509152603 60 194 3.0 7.0 0.00 0.39 0.15 76 1007.1
20260509152503 60 191 2.0 7.0 0.00 0.39 0.15 76 1007.2
20260509152203 60 187 3.0 7.0 0.00 0.39 0.15 75 1007.0
20260509151924 60 191 3.0 7.0 0.00 0.39 0.15 75 1007.0
20260509151603 59 201 3.0 7.0 0.00 0.39 0.15 76 1007.0
20260509151524 59 199 3.0 7.0 0.00 0.39 0.15 76 1007.0
20260509151403 59 204 2.0 6.0 0.00 0.39 0.15 77 1007.0
20260509151203 59 196 2.0 6.0 0.00 0.39 0.15 78 1007.0
20260509151003 59 182 2.0 6.0 0.00 0.39 0.15 78 1007.3
20260509150803 60 170 2.0 6.0 0.00 0.39 0.15 78 1007.0
20260509150703 60 164 2.0 6.0 0.00 0.39 0.15 78 1007.1
20260509150603 60 163 2.0 4.0 0.00 0.39 0.15 78 1007.2
20260509150503 60 165 2.0 4.0 0.00 0.39 0.15 79 1007.1
20260509150424 60 168 2.0 4.0 0.00 0.39 0.15 79 1007.1
20260509150103 59 175 2.0 6.0 0.00 0.39 0.15 80 1007.1
20260509145903 58 179 2.0 7.0 0.00 0.39 0.15 81 1006.8
20260509145703 58 180 3.0 7.0 0.00 0.39 0.15 81 1007.0
20260509145524 58 181 3.0 7.0 0.00 0.39 0.15 80 1007.1
20260509145403 58 189 3.0 7.0 0.00 0.39 0.15 80 1007.1
20260509145324 58 186 2.0 7.0 0.00 0.39 0.15 80 1007.1
20260509145124 58 182 2.0 7.0 0.00 0.39 0.15 81 1007.0
20260509144903 58 190 2.0 7.0 0.00 0.39 0.15 81 1007.2
20260509144803 58 177 2.0 7.0 0.00 0.39 0.15 82 1007.2
20260509144603 58 188 2.0 7.0 0.00 0.39 0.15 83 1007.2
20260509144424 58 183 2.0 7.0 0.00 0.39 0.15 84 1007.1
20260509144103 57 197 3.0 7.0 0.00 0.39 0.15 84 1007.1
20260509144003 57 200 3.0 7.0 0.00 0.39 0.15 85 1007.1
20260509143903 57 195 3.0 7.0 0.00 0.39 0.15 85 1007.1
20260509143603 57 189 2.0 7.0 0.00 0.39 0.15 85 1007.1
20260509143103 57 159 1.0 7.0 0.00 0.39 0.15 86 1007.1
20260509143024 57 153 1.0 7.0 0.00 0.39 0.15 86 1007.1
20260509142903 57 154 1.0 7.0 0.00 0.39 0.15 87 1007.0
20260509142803 57 160 1.0 7.0 0.00 0.39 0.15 87 1007.1
20260509142624 57 163 1.0 7.0 0.00 0.39 0.15 87 1007.1
20260509142306 56 185 2.0 7.0 0.00 0.39 0.15 88 1007.2
20260509142103 56 201 2.0 7.0 0.00 0.39 0.15 88 1006.9
20260509141924 56 205 2.0 7.0 0.00 0.39 0.15 88 1007.2
20260509141603 56 219 3.0 9.0 0.00 0.39 0.15 89 1007.1
20260509141303 56 206 3.0 9.0 0.00 0.39 0.15 88 1007.2
20260509141103 56 197 2.0 9.0 0.00 0.39 0.15 89 1007.3
20260509140903 56 192 2.0 9.0 0.00 0.39 0.15 90 1007.2
20260509140803 55 189 2.0 9.0 0.00 0.39 0.15 90 1007.1
20260509140703 56 181 2.0 9.0 0.00 0.39 0.15 90 1007.2
20260509140603 56 160 1.0 6.0 0.00 0.39 0.15 90 1007.2
20260509140424 56 150 1.0 4.0 0.00 0.39 0.15 91 1007.1
20260509140303 56 143 1.0 3.0 0.00 0.39 0.15 91 1007.2
20260509140103 56 148 1.0 3.0 0.00 0.39 0.15 91 1007.0
20260509135803 56 152 1.0 4.0 0.00 0.39 0.15 91 1007.1
20260509135607 55 153 1.0 4.0 0.00 0.39 0.15 92 1007.2
20260509135403 55 153 1.0 4.0 0.00 0.39 0.15 92 1007.2
20260509135324 55 149 1.0 4.0 0.00 0.39 0.15 92 1007.2
20260509135103 55 150 1.0 4.0 0.00 0.39 0.15 92 1007.0
20260509135003 55 151 1.0 4.0 0.00 0.39 0.15 92 1007.3
20260509134924 55 150 1.0 4.0 0.00 0.39 0.15 92 1007.2
20260509134703 55 157 2.0 4.0 0.00 0.39 0.15 92 1007.2
20260509134503 55 154 2.0 11.0 0.00 0.39 0.15 92 1007.1
20260509134403 55 155 2.0 11.0 0.00 0.39 0.15 93 1007.0
20260509134224 55 155 2.0 11.0 0.00 0.39 0.15 93 1007.2
20260509134103 55 155 2.0 11.0 0.00 0.39 0.15 93 1006.9
20260509134003 54 156 1.0 11.0 0.00 0.39 0.15 93 1007.2
20260509133903 54 156 2.0 11.0 0.00 0.39 0.15 93 1007.2
20260509133803 54 155 2.0 11.0 0.00 0.39 0.15 93 1007.2
20260509133603 55 152 1.0 3.0 0.00 0.39 0.15 94 1007.3
20260509133303 55 148 1.0 4.0 0.00 0.39 0.15 94 1007.3
20260509133103 54 148 1.0 4.0 0.00 0.39 0.15 95 1007.0
20260509133003 54 147 1.0 4.0 0.00 0.39 0.15 94 1007.2
20260509132903 54 153 1.0 4.0 0.00 0.39 0.15 94 1007.3
20260509132724 54 145 1.0 7.0 0.00 0.39 0.15 95 1007.3
20260509132403 54 149 2.0 7.0 0.00 0.39 0.15 95 1007.3
20260509132103 54 152 2.0 7.0 0.00 0.39 0.15 95 1007.4
20260509131903 54 147 1.0 7.0 0.00 0.39 0.15 95 1007.3
20260509131803 54 148 1.0 4.0 0.00 0.39 0.15 95 1007.2
20260509131603 54 149 1.0 4.0 0.00 0.39 0.15 95 1007.3
20260509131503 54 148 1.0 4.0 0.00 0.39 0.15 95 1007.1
20260509131303 54 152 1.0 4.0 0.00 0.39 0.15 95 1007.1
20260509131203 54 153 2.0 4.0 0.00 0.39 0.15 95 1007.1
20260509131103 54 151 1.0 4.0 0.00 0.39 0.15 95 1007.3
20260509131024 54 151 1.0 4.0 0.00 0.39 0.15 95 1007.2
20260509130703 54 155 1.0 4.0 0.00 0.39 0.15 95 1007.2
20260509130603 54 157 1.0 4.0 0.00 0.39 0.15 96 1006.9
20260509130503 54 159 1.0 4.0 0.00 0.39 0.15 96 1007.1
20260509125803 54 138 1.0 4.0 0.00 0.39 0.15 96 1007.3
20260509125703 54 136 1.0 4.0 0.00 0.39 0.15 96 1007.3
20260509125424 54 139 1.0 4.0 0.00 0.39 0.15 96 1007.1
20260509125203 54 138 1.0 4.0 0.00 0.39 0.15 96 1007.2
20260509125103 54 143 2.0 6.0 0.00 0.39 0.15 96 1007.2
20260509124903 54 147 1.0 6.0 0.00 0.39 0.15 96 1007.2
20260509124603 54 144 2.0 6.0 0.00 0.40 0.15 97 1007.2
20260509124303 54 136 2.0 6.0 0.00 0.41 0.15 97 1007.3
20260509124103 54 137 2.0 4.0 0.00 0.41 0.15 97 1007.3
20260509124003 54 135 2.0 4.0 0.00 0.41 0.15 97 1007.4
20260509123803 53 137 2.0 4.0 0.00 0.41 0.15 97 1007.4
20260509123603 53 135 1.0 4.0 0.00 0.41 0.15 97 1007.5
20260509123124 53 131 1.0 3.0 0.00 0.41 0.15 97 1007.3
20260509122903 53 138 1.0 3.0 0.00 0.41 0.15 97 1007.5
20260509122824 53 138 1.0 3.0 0.00 0.41 0.15 97 1007.6
20260509122703 53 135 1.0 3.0 0.00 0.41 0.15 97 1007.7
20260509122403 53 145 1.0 4.0 0.00 0.41 0.15 97 1007.6
20260509122103 53 145 1.0 4.0 0.00 0.41 0.15 97 1007.6
20260509122003 53 141 1.0 4.0 0.00 0.41 0.15 97 1007.6
20260509121924 53 142 1.0 4.0 0.00 0.41 0.15 97 1007.6
20260509121824 53 141 1.0 4.0 0.00 0.41 0.15 97 1007.5
20260509121603 53 139 1.0 4.0 0.00 0.41 0.15 97 1007.7
20260509121203 53 129 1.0 3.0 0.00 0.41 0.15 97 1007.5
20260509121024 53 128 1.0 3.0 0.00 0.41 0.15 97 1007.6
20260509120924 53 131 1.0 3.0 0.00 0.41 0.15 97 1007.4
20260509120803 53 133 1.0 3.0 0.00 0.41 0.15 97 1007.3
20260509120703 53 133 1.0 3.0 0.00 0.41 0.15 97 1007.6
20260509120603 53 132 1.0 3.0 0.00 0.41 0.15 97 1007.5
20260509120403 53 131 1.0 3.0 0.00 0.41 0.15 97 1007.5
20260509120303 53 131 1.0 3.0 0.00 0.41 0.15 97 1007.5
20260509115924 52 132 1.0 3.0 0.00 0.41 0.15 97 1007.4
20260509115824 52 129 1.0 4.0 0.00 0.41 0.15 97 1007.3
20260509115703 52 129 1.0 4.0 0.00 0.41 0.15 97 1007.4
20260509115503 52 129 1.0 4.0 0.00 0.41 0.15 97 1007.5
20260509115103 52 136 1.0 4.0 0.00 0.41 0.15 97 1007.6
20260509115024 52 137 1.0 4.0 0.00 0.41 0.15 97 1007.6
20260509114824 52 142 1.0 3.0 0.00 0.41 0.15 97 1007.5
20260509114303 52 138 1.0 3.0 0.00 0.41 0.15 97 1007.7
20260509114203 52 135 1.0 3.0 0.00 0.41 0.15 97 1007.5
20260509113903 52 129 1.0 3.0 0.00 0.41 0.15 97 1007.6
20260509113803 52 127 1.0 3.0 0.00 0.41 0.15 97 1007.5
20260509113703 52 122 1.0 3.0 0.00 0.41 0.15 97 1007.7
20260509113603 52 124 1.0 3.0 0.00 0.41 0.15 97 1007.5
20260509113403 52 127 1.0 3.0 0.00 0.41 0.15 98 1007.5
20260509113303 52 124 1.0 3.0 0.00 0.41 0.15 98 1007.6
20260509113203 52 124 1.0 3.0 0.00 0.41 0.15 98 1007.6
20260509113103 52 122 1.0 3.0 0.00 0.41 0.15 97 1007.6
20260509113003 52 124 1.0 3.0 0.00 0.41 0.15 98 1007.4
20260509112903 52 127 1.0 3.0 0.00 0.41 0.15 98 1007.4
20260509112803 52 127 1.0 3.0 0.00 0.41 0.15 98 1007.5
20260509112603 52 131 1.0 3.0 0.00 0.41 0.15 98 1007.3
20260509112503 52 134 1.0 3.0 0.00 0.41 0.15 98 1007.6
20260509112403 52 135 1.0 3.0 0.00 0.41 0.15 98 1007.5
20260509112103 52 134 1.0 4.0 0.00 0.41 0.15 98 1007.5
20260509111803 52 130 1.0 4.0 0.00 0.41 0.15 98 1007.5
20260509111703 52 129 1.0 4.0 0.00 0.41 0.15 98 1007.4
20260509111303 52 128 1.0 3.0 0.00 0.41 0.15 98 1007.3
20260509111224 52 127 1.0 3.0 0.00 0.41 0.15 97 1007.5
20260509111003 51 128 0.0 3.0 0.00 0.41 0.15 98 1007.6
20260509110924 51 129 0.0 3.0 0.00 0.41 0.15 98 1007.3
20260509110603 51 134 0.0 3.0 0.00 0.41 0.15 98 1007.3
20260509110403 51 134 0.0 3.0 0.00 0.41 0.15 98 1007.2
20260509110303 51 124 0.0 1.0 0.00 0.41 0.15 98 1007.3
20260509110203 51 134 0.0 3.0 0.00 0.41 0.15 98 1007.4
20260509110003 51 140 0.0 3.0 0.00 0.41 0.15 98 1007.3
20260509105903 51 140 0.0 3.0 0.00 0.41 0.15 97 1007.3
20260509105703 51 137 1.0 3.0 0.00 0.41 0.15 97 1007.3
20260509105404 51 136 1.0 3.0 0.00 0.41 0.15 97 1007.4
20260509105306 51 135 1.0 3.0 0.00 0.41 0.15 97 1007.4
20260509105126 51 131 0.0 3.0 0.00 0.41 0.15 97 1007.3
20260509105003 51 126 0.0 2.0 0.00 0.41 0.15 97 1007.3
20260509104903 51 126 0.0 2.0 0.00 0.41 0.15 97 1007.3
20260509104803 51 121 0.0 2.0 0.00 0.41 0.15 97 1007.1
20260509104618 51 130 0.0 2.0 0.00 0.41 0.15 97 1007.4
20260509104404 51 134 0.0 2.0 0.00 0.41 0.15 97 1007.3
20260509104304 51 135 0.0 2.0 0.00 0.41 0.15 97 1007.2
20260509104203 51 135 0.0 2.0 0.00 0.41 0.15 97 1007.4
20260509104108 51 138 0.0 2.0 0.00 0.41 0.15 97 1007.2
20260509104003 51 137 0.0 2.0 0.00 0.41 0.15 97 1007.3
20260509103824 51 139 1.0 2.0 0.00 0.41 0.15 97 1007.2
20260509103503 51 135 0.0 2.0 0.00 0.41 0.15 97 1007.2
20260509103404 51 135 0.0 2.0 0.00 0.41 0.15 97 1007.2
20260509103304 51 134 1.0 2.0 0.00 0.41 0.15 97 1007.2
20260509103103 51 133 0.0 2.0 0.00 0.41 0.15 97 1007.1
20260509102903 51 128 0.0 3.0 0.00 0.41 0.15 97 1007.1
20260509102503 51 120 1.0 3.0 0.00 0.41 0.15 97 1007.4
20260509102403 51 122 1.0 3.0 0.00 0.41 0.15 97 1007.1
20260509102305 51 125 1.0 3.0 0.00 0.41 0.15 97 1007.2
20260509102203 51 128 1.0 3.0 0.00 0.41 0.15 97 1007.2
20260509102103 51 127 1.0 3.0 0.00 0.41 0.15 97 1007.4
20260509101903 51 127 1.0 3.0 0.00 0.41 0.15 97 1007.3
20260509101803 51 127 1.0 4.0 0.00 0.41 0.15 97 1007.2
20260509101703 51 130 1.0 4.0 0.00 0.41 0.15 97 1007.2
20260509101624 51 131 1.0 4.0 0.00 0.41 0.15 97 1007.3
20260509101503 51 130 2.0 4.0 0.00 0.41 0.15 97 1007.2
20260509101403 51 132 2.0 4.0 0.00 0.41 0.15 97 1007.3
20260509101303 51 131 1.0 4.0 0.00 0.41 0.15 97 1007.3
20260509101103 51 130 1.0 4.0 0.00 0.41 0.15 97 1007.2
20260509101024 51 131 1.0 4.0 0.00 0.41 0.15 97 1007.1
20260509100803 51 131 1.0 4.0 0.00 0.41 0.15 97 1007.3
20260509100603 51 130 1.0 3.0 0.00 0.41 0.15 97 1007.3
20260509100503 51 131 1.0 3.0 0.00 0.41 0.15 97 1007.6
20260509100403 51 129 1.0 3.0 0.00 0.41 0.15 97 1007.5
20260509095703 51 123 1.0 3.0 0.00 0.41 0.15 97 1007.4
20260509095603 51 123 1.0 3.0 0.00 0.41 0.15 97 1007.3
20260509095503 51 131 1.0 6.0 0.00 0.41 0.15 97 1007.3
20260509095403 51 134 1.0 6.0 0.00 0.41 0.15 97 1007.4
20260509095305 51 133 1.0 6.0 0.00 0.41 0.15 97 1007.4
20260509095103 51 140 1.0 6.0 0.00 0.41 0.15 97 1007.3
20260509095003 51 140 1.0 6.0 0.00 0.41 0.15 97 1007.4
20260509094524 51 140 1.0 6.0 0.00 0.41 0.15 97 1007.4
20260509094424 51 136 1.0 6.0 0.00 0.41 0.15 97 1007.5
20260509094203 51 135 1.0 6.0 0.00 0.41 0.15 97 1007.6
20260509093903 51 145 2.0 6.0 0.00 0.41 0.15 97 1007.4
20260509093803 51 146 2.0 6.0 0.00 0.41 0.15 97 1007.4
20260509093403 51 151 2.0 6.0 0.00 0.41 0.15 97 1007.4
20260509093303 51 153 2.0 6.0 0.00 0.41 0.15 97 1007.4
20260509093103 51 153 2.0 6.0 0.00 0.41 0.15 97 1007.5
20260509093003 51 150 1.0 6.0 0.00 0.41 0.15 97 1007.7
20260509092724 51 144 1.0 4.0 0.00 0.41 0.15 97 1007.5
20260509092603 51 144 1.0 7.0 0.00 0.41 0.15 97 1007.5
20260509092503 51 146 1.0 7.0 0.00 0.41 0.15 97 1007.5
20260509092403 51 146 1.0 7.0 0.00 0.41 0.15 97 1007.6
20260509092305 51 143 1.0 7.0 0.00 0.41 0.15 97 1007.5
20260509092003 51 144 1.0 7.0 0.00 0.41 0.15 97 1007.5
20260509091903 51 145 1.0 7.0 0.00 0.41 0.15 97 1007.4
20260509091724 51 145 1.0 7.0 0.00 0.41 0.15 97 1007.6
20260509091603 51 143 1.0 6.0 0.00 0.41 0.15 97 1007.5
20260509091324 51 137 1.0 6.0 0.00 0.41 0.15 97 1007.7
20260509090803 51 133 1.0 6.0 0.00 0.41 0.15 97 1007.6
20260509090624 51 133 1.0 6.0 0.00 0.41 0.15 97 1007.8
20260509090303 51 132 1.0 6.0 0.00 0.41 0.15 97 1007.8
20260509090203 51 131 1.0 6.0 0.00 0.41 0.15 97 1007.7
20260509090003 51 134 1.0 6.0 0.00 0.41 0.15 97 1007.7
20260509085903 51 137 1.0 4.0 0.00 0.41 0.15 97 1007.9
20260509085824 51 137 1.0 4.0 0.00 0.41 0.15 97 1007.8
20260509085703 51 142 1.0 4.0 0.00 0.41 0.15 97 1007.7
20260509085603 51 141 2.0 4.0 0.00 0.41 0.15 97 1007.8
20260509085503 51 140 1.0 4.0 0.00 0.41 0.15 97 1007.7
20260509085403 51 141 1.0 4.0 0.00 0.41 0.15 97 1007.8
20260509085306 51 141 1.0 4.0 0.00 0.41 0.15 97 1007.7
20260509085124 51 138 1.0 4.0 0.00 0.41 0.15 97 1007.7
20260509085003 51 136 1.0 4.0 0.00 0.41 0.15 97 1007.7
20260509084824 51 130 1.0 4.0 0.00 0.41 0.15 97 1008.0
20260509084703 51 127 1.0 4.0 0.00 0.41 0.15 97 1008.0
20260509084403 51 128 1.0 4.0 0.00 0.41 0.15 97 1008.0
20260509084103 51 132 1.0 4.0 0.00 0.41 0.15 97 1007.7
20260509083603 51 139 1.0 4.0 0.00 0.41 0.15 97 1008.0
20260509083403 51 143 1.0 4.0 0.00 0.41 0.15 97 1007.9
20260509083303 51 142 1.0 4.0 0.00 0.41 0.15 97 1007.8
20260509083124 51 143 2.0 4.0 0.00 0.41 0.15 97 1007.9
20260509083003 51 142 2.0 4.0 0.00 0.41 0.15 97 1007.9
20260509082903 51 140 2.0 4.0 0.00 0.41 0.15 97 1008.0
20260509082803 51 146 2.0 6.0 0.00 0.41 0.15 97 1008.0
20260509082203 51 144 1.0 6.0 0.00 0.41 0.15 97 1008.1
20260509082103 51 147 1.0 6.0 0.00 0.41 0.15 97 1008.0
20260509081903 51 149 1.0 6.0 0.00 0.41 0.15 97 1007.9
20260509081603 51 139 1.0 4.0 0.00 0.41 0.15 97 1007.8
20260509081503 51 139 1.0 4.0 0.00 0.41 0.15 97 1007.9
20260509081103 51 145 1.0 4.0 0.00 0.41 0.15 97 1008.1
20260509081003 51 143 1.0 4.0 0.00 0.41 0.15 97 1008.0
20260509080803 51 146 1.0 4.0 0.00 0.41 0.15 97 1008.0
20260509080703 51 145 1.0 4.0 0.00 0.41 0.15 97 1008.2
20260509080603 51 146 1.0 4.0 0.00 0.41 0.15 97 1007.9
20260509075903 51 141 1.0 6.0 0.00 0.41 0.15 97 1008.0
20260509075824 51 141 1.0 6.0 0.00 0.41 0.15 97 1007.9
20260509075603 51 141 2.0 6.0 0.00 0.41 0.15 97 1008.0
20260509075403 51 141 1.0 6.0 0.00 0.41 0.15 97 1008.1
20260509075203 51 140 1.0 3.0 0.00 0.41 0.15 97 1008.1
20260509075003 51 143 1.0 3.0 0.00 0.41 0.15 97 1008.1
20260509074803 51 139 1.0 3.0 0.01 0.41 0.15 97 1007.9
20260509074624 51 139 1.0 3.0 0.01 0.41 0.15 97 1008.0
20260509074403 51 136 1.0 3.0 0.01 0.41 0.15 97 1008.1
20260509074324 51 135 1.0 3.0 0.01 0.41 0.15 97 1008.0
20260509074003 51 134 1.0 3.0 0.01 0.41 0.15 97 1008.1
20260509073924 51 134 2.0 3.0 0.01 0.41 0.15 97 1008.2
20260509073624 51 132 2.0 3.0 0.01 0.41 0.15 97 1007.9
20260509073403 51 136 2.0 4.0 0.01 0.41 0.15 97 1007.9
20260509073303 51 135 1.0 4.0 0.01 0.41 0.15 97 1008.0
20260509073203 51 138 2.0 4.0 0.01 0.41 0.15 97 1007.9
20260509073103 51 138 2.0 4.0 0.01 0.41 0.15 97 1007.9
20260509072603 51 135 1.0 4.0 0.01 0.41 0.15 97 1008.2
20260509072403 51 132 1.0 4.0 0.01 0.41 0.15 97 1008.0
20260509072306 51 131 1.0 4.0 0.01 0.41 0.15 97 1008.1
20260509071803 51 137 2.0 6.0 0.01 0.41 0.15 97 1008.2
20260509071603 51 135 1.0 6.0 0.01 0.41 0.15 97 1008.2
20260509071403 51 137 1.0 6.0 0.01 0.41 0.15 97 1008.1
20260509071303 51 135 2.0 6.0 0.01 0.41 0.15 97 1008.2
20260509071124 51 133 2.0 6.0 0.01 0.41 0.15 97 1008.1
20260509071003 51 131 1.0 6.0 0.02 0.41 0.15 97 1008.0
20260509070903 51 128 1.0 3.0 0.02 0.41 0.15 97 1007.9
20260509070803 51 128 1.0 4.0 0.02 0.41 0.15 97 1008.1
20260509070503 51 131 1.0 4.0 0.02 0.41 0.15 97 1008.3
20260509070403 51 133 1.0 4.0 0.02 0.41 0.15 97 1008.2
20260509070303 51 136 1.0 4.0 0.02 0.41 0.15 97 1008.5
20260509070003 51 138 1.0 4.0 0.02 0.41 0.15 97 1008.2
20260509065703 51 137 1.0 3.0 0.02 0.41 0.15 97 1008.3
20260509065603 51 137 1.0 3.0 0.03 0.41 0.15 97 1008.5
20260509065524 51 138 1.0 3.0 0.03 0.41 0.15 97 1008.3
20260509065306 51 138 1.0 6.0 0.06 0.41 0.15 97 1008.3
20260509065203 51 142 1.0 7.0 0.07 0.41 0.15 97 1008.5
20260509065103 51 142 1.0 7.0 0.07 0.41 0.15 97 1008.3
20260509064924 51 143 1.0 7.0 0.07 0.40 0.14 97 1008.3
20260509064624 51 140 1.0 7.0 0.08 0.40 0.14 97 1008.2
20260509064503 51 139 1.0 7.0 0.08 0.40 0.14 97 1008.3
20260509064303 51 136 1.0 7.0 0.08 0.40 0.14 97 1008.2
20260509064124 51 133 1.0 3.0 0.08 0.40 0.14 97 1008.3
20260509063803 51 128 1.0 4.0 0.08 0.40 0.14 97 1008.6
20260509063703 51 129 1.0 4.0 0.08 0.40 0.14 97 1008.5
20260509063603 51 130 1.0 4.0 0.08 0.40 0.14 97 1008.5
20260509063403 51 138 1.0 4.0 0.08 0.40 0.14 97 1008.6
20260509063303 51 138 1.0 4.0 0.08 0.40 0.14 97 1008.3
20260509062803 51 139 2.0 4.0 0.08 0.40 0.14 97 1008.8
20260509062624 51 137 2.0 4.0 0.08 0.40 0.14 97 1008.7
20260509062403 51 131 1.0 4.0 0.08 0.40 0.14 97 1008.6
20260509062324 51 132 1.0 4.0 0.08 0.40 0.14 97 1008.6
20260509062103 51 131 1.0 3.0 0.08 0.40 0.14 97 1008.7
20260509062003 51 131 1.0 3.0 0.08 0.40 0.14 97 1008.5
20260509061903 51 132 1.0 7.0 0.08 0.40 0.14 97 1008.8
20260509061803 51 135 1.0 8.0 0.08 0.40 0.14 97 1008.3
20260509061624 51 139 2.0 8.0 0.08 0.40 0.14 97 1008.8
20260509061403 51 142 2.0 8.0 0.09 0.40 0.14 97 1008.8
20260509061303 51 143 2.0 8.0 0.09 0.40 0.14 97 1008.8
20260509061103 51 142 2.0 8.0 0.09 0.40 0.14 97 1008.6
20260509060703 51 146 2.0 6.0 0.08 0.39 0.13 97 1008.8
20260509060503 51 143 2.0 6.0 0.08 0.39 0.13 97 1008.8
20260509060403 51 139 2.0 6.0 0.08 0.39 0.13 97 1008.9
20260509060003 51 141 2.0 6.0 0.08 0.39 0.13 97 1008.9
20260509055803 51 144 2.0 6.0 0.08 0.39 0.13 97 1009.0
20260509055503 51 143 2.0 6.0 0.08 0.38 0.12 97 1009.0
20260509055403 51 146 2.0 6.0 0.07 0.37 0.12 97 1009.1
20260509055306 51 148 2.0 6.0 0.05 0.35 0.10 97 1009.1
20260509055103 51 151 2.0 6.0 0.05 0.34 0.08 97 1009.0
20260509055003 51 148 2.0 6.0 0.05 0.34 0.08 97 1009.1
20260509054403 51 157 2.0 7.0 0.03 0.32 0.06 97 1009.2
20260509053903 51 153 2.0 7.0 0.03 0.32 0.06 97 1009.1
20260509053703 51 156 2.0 7.0 0.03 0.32 0.06 97 1009.1
20260509053603 51 159 2.0 7.0 0.03 0.32 0.06 97 1009.3
20260509053103 51 142 1.0 6.0 0.03 0.32 0.06 97 1009.0
20260509053003 50 146 1.0 6.0 0.04 0.32 0.06 97 1009.0
20260509052803 50 142 1.0 4.0 0.04 0.32 0.06 97 1009.0
20260509052703 50 139 1.0 6.0 0.04 0.32 0.06 97 1009.3
20260509052603 50 136 1.0 6.0 0.04 0.32 0.06 97 1009.0
20260509052103 50 139 2.0 6.0 0.05 0.32 0.06 97 1009.2
20260509051903 50 138 2.0 6.0 0.05 0.32 0.06 97 1009.1
20260509051803 50 138 2.0 6.0 0.05 0.32 0.06 97 1009.0
20260509051603 50 136 2.0 6.0 0.05 0.32 0.06 97 1009.1
20260509051503 50 132 2.0 6.0 0.04 0.31 0.05 97 1009.2
20260509051103 50 132 1.0 6.0 0.05 0.31 0.05 96 1009.2
20260509050903 50 132 2.0 6.0 0.05 0.31 0.05 96 1009.2
20260509050503 50 134 1.0 6.0 0.05 0.31 0.05 96 1009.5
20260509050403 50 136 1.0 6.0 0.05 0.31 0.05 96 1009.4
20260509045903 51 137 1.0 4.0 0.05 0.31 0.05 96 1009.2
20260509045803 51 138 1.0 4.0 0.05 0.31 0.05 96 1009.4
20260509045624 51 139 1.0 4.0 0.05 0.31 0.05 96 1009.2
20260509045403 50 137 1.0 4.0 0.04 0.30 0.04 96 1009.4
20260509045306 50 137 1.0 4.0 0.04 0.30 0.04 96 1009.2
20260509045224 50 136 1.0 4.0 0.04 0.30 0.04 96 1009.4
20260509045124 50 135 1.0 4.0 0.03 0.29 0.04 96 1009.3
20260509044803 50 131 1.0 4.0 0.04 0.29 0.03 96 1009.4
20260509044603 50 131 1.0 4.0 0.04 0.29 0.03 96 1009.3
20260509044403 50 132 1.0 4.0 0.04 0.29 0.03 96 1009.1
20260509044103 50 132 1.0 4.0 0.04 0.29 0.03 96 1009.4
20260509044024 50 133 1.0 4.0 0.04 0.29 0.03 96 1009.5
20260509043903 50 136 1.0 3.0 0.04 0.29 0.03 96 1009.4
20260509043603 50 141 1.0 3.0 0.04 0.29 0.03 96 1009.5
20260509043503 50 140 1.0 3.0 0.04 0.29 0.03 96 1009.5
20260509043303 50 130 1.0 4.0 0.04 0.29 0.03 96 1009.5
20260509043203 50 130 1.0 4.0 0.04 0.29 0.03 96 1009.7
20260509043103 50 136 1.0 4.0 0.04 0.29 0.03 96 1009.5
20260509043003 50 138 1.0 4.0 0.03 0.28 0.03 96 1009.5
20260509042803 50 134 2.0 4.0 0.03 0.28 0.02 96 1009.5
20260509042703 50 132 2.0 4.0 0.03 0.28 0.02 96 1009.7
20260509042603 50 130 2.0 4.0 0.03 0.28 0.02 96 1009.7
20260509042403 50 130 2.0 4.0 0.02 0.27 0.01 96 1009.6
20260509042103 50 125 1.0 4.0 0.03 0.27 0.01 96 1009.6
20260509041903 50 119 1.0 4.0 0.03 0.27 0.01 96 1009.5
20260509041803 50 122 1.0 4.0 0.03 0.27 0.01 96 1009.7
20260509041403 50 134 1.0 6.0 0.02 0.26 0.00 96 1009.7
20260509041103 50 145 2.0 8.0 0.02 0.26 0.00 96 1009.7
20260509040903 50 144 3.0 8.0 0.03 0.26 0.00 96 1009.8
20260509040603 50 140 3.0 8.0 0.03 0.26 0.00 96 1009.8
20260509040003 50 130 3.0 8.0 0.03 0.26 0.00 96 1009.8
20260509035603 50 130 2.0 8.0 0.03 0.26 0.26 96 1009.8
20260509035403 50 133 2.0 7.0 0.03 0.26 0.26 96 1009.8
20260509035324 50 136 3.0 9.0 0.03 0.26 0.26 96 1009.8
20260509035103 50 141 2.0 9.0 0.03 0.26 0.26 96 1009.8
20260509035003 50 141 2.0 9.0 0.02 0.25 0.25 96 1009.9
20260509034803 50 147 2.0 9.0 0.02 0.25 0.25 96 1010.0
20260509034603 50 149 2.0 9.0 0.02 0.25 0.25 96 1010.0
20260509034503 50 147 2.0 9.0 0.02 0.25 0.25 96 1010.2
20260509034303 50 143 2.0 6.0 0.02 0.25 0.25 96 1010.1
20260509034103 50 142 2.0 6.0 0.02 0.25 0.25 96 1010.3
20260509033924 50 138 2.0 6.0 0.02 0.25 0.25 96 1010.2
20260509033803 50 138 2.0 6.0 0.02 0.25 0.25 96 1010.3
20260509033603 50 135 2.0 6.0 0.02 0.25 0.25 96 1010.2
20260509033403 50 133 2.0 6.0 0.02 0.25 0.25 96 1010.1
20260509033003 50 134 2.0 6.0 0.02 0.25 0.25 96 1010.2
20260509032824 50 133 2.0 6.0 0.02 0.25 0.25 95 1010.3
20260509032703 50 136 2.0 6.0 0.02 0.25 0.25 95 1010.3
20260509032503 50 146 2.0 6.0 0.02 0.25 0.25 95 1010.1
20260509032306 50 148 2.0 6.0 0.02 0.25 0.25 95 1010.4
20260509032103 50 151 2.0 7.0 0.01 0.24 0.24 95 1010.5
20260509032003 50 153 2.0 7.0 0.01 0.24 0.24 95 1010.2
20260509031903 50 152 2.0 7.0 0.01 0.24 0.24 95 1010.3
20260509031103 50 147 2.0 7.0 0.01 0.24 0.24 95 1010.3
20260509031024 50 144 2.0 7.0 0.00 0.23 0.23 95 1010.3
20260509030903 50 149 2.0 7.0 0.00 0.23 0.23 95 1010.5
20260509030803 50 148 2.0 6.0 0.00 0.23 0.23 95 1010.5
20260509030603 50 150 2.0 4.0 0.00 0.23 0.23 95 1010.4
20260509030224 50 138 2.0 4.0 0.00 0.23 0.23 95 1010.4
20260509030124 50 139 2.0 6.0 0.00 0.23 0.23 95 1010.5
20260509025924 50 132 2.0 6.0 0.00 0.23 0.23 95 1010.3
20260509025803 50 131 2.0 6.0 0.00 0.23 0.23 95 1010.3
20260509025603 50 128 2.0 6.0 0.00 0.23 0.23 95 1010.2
20260509025503 50 130 2.0 6.0 0.00 0.23 0.23 95 1010.2
20260509025203 50 132 1.0 6.0 0.00 0.23 0.23 95 1010.3
20260509024703 50 138 1.0 4.0 0.00 0.23 0.23 95 1010.3
20260509024503 50 154 2.0 4.0 0.00 0.23 0.23 95 1010.3
20260509024424 50 154 2.0 4.0 0.00 0.23 0.23 95 1010.2
20260509024324 50 155 2.0 4.0 0.00 0.23 0.23 95 1010.3
20260509024103 50 146 2.0 7.0 0.00 0.23 0.23 95 1010.2
20260509023703 50 140 3.0 9.0 0.00 0.23 0.23 95 1010.6
20260509023503 50 131 3.0 9.0 0.00 0.23 0.23 95 1010.4
20260509023403 50 129 2.0 9.0 0.00 0.23 0.23 95 1010.3
20260509023303 50 133 2.0 9.0 0.00 0.23 0.23 95 1010.1
20260509023203 50 135 2.0 9.0 0.00 0.23 0.23 95 1010.4
20260509023103 50 137 2.0 9.0 0.00 0.23 0.23 95 1010.3
20260509022903 50 142 2.0 4.0 0.00 0.23 0.23 95 1010.5
20260509022703 50 147 2.0 7.0 0.01 0.23 0.23 95 1010.5
20260509022324 50 152 2.0 7.0 0.01 0.23 0.23 95 1010.5
20260509022103 50 158 2.0 7.0 0.01 0.23 0.23 95 1010.4
20260509021803 50 154 2.0 6.0 0.01 0.23 0.23 95 1010.5
20260509021503 50 154 2.0 6.0 0.01 0.23 0.23 95 1010.4
20260509021403 50 152 2.0 6.0 0.01 0.23 0.23 95 1010.6
20260509021103 50 145 2.0 8.0 0.01 0.23 0.23 95 1010.5
20260509021003 50 145 2.0 8.0 0.01 0.23 0.23 95 1010.4
20260509020903 50 143 2.0 8.0 0.01 0.23 0.23 95 1010.5
20260509020803 50 143 2.0 8.0 0.01 0.23 0.23 96 1010.3
20260509020624 50 139 1.0 8.0 0.01 0.23 0.23 95 1010.4
20260509020524 50 140 2.0 8.0 0.01 0.23 0.23 96 1010.4
20260509020203 50 134 1.0 4.0 0.01 0.23 0.23 96 1010.5
20260509015703 50 136 1.0 4.0 0.02 0.23 0.23 96 1010.2
20260509015603 50 136 1.0 4.0 0.02 0.23 0.23 96 1010.4
20260509015503 50 133 1.0 4.0 0.02 0.23 0.23 96 1010.5
20260509015403 50 133 1.0 4.0 0.02 0.23 0.23 96 1010.4
20260509015203 50 135 1.0 4.0 0.02 0.23 0.23 96 1010.5
20260509014803 50 127 1.0 6.0 0.02 0.23 0.23 96 1010.5
20260509014603 50 132 1.0 6.0 0.02 0.23 0.23 96 1010.5
20260509014303 50 138 2.0 6.0 0.03 0.23 0.23 96 1010.4
20260509013803 50 129 2.0 8.0 0.03 0.23 0.23 96 1010.5
20260509013624 50 126 2.0 8.0 0.04 0.23 0.23 96 1010.3
20260509013003 50 129 2.0 6.0 0.04 0.23 0.23 96 1010.7
20260509012803 50 133 2.0 6.0 0.04 0.23 0.23 96 1010.7
20260509012424 50 134 2.0 6.0 0.04 0.22 0.22 96 1010.4
20260509012103 50 131 2.0 4.0 0.04 0.22 0.22 96 1010.3
20260509011824 50 131 2.0 4.0 0.04 0.22 0.22 96 1010.3
20260509011603 50 133 2.0 7.0 0.04 0.22 0.22 96 1010.3
20260509011303 50 132 2.0 7.0 0.05 0.22 0.22 96 1010.5
20260509011003 50 135 2.0 7.0 0.05 0.22 0.22 96 1010.5
20260509010802 50 135 2.0 7.0 0.05 0.22 0.22 96 1010.4
20260509010623 50 133 2.0 7.0 0.05 0.22 0.22 96 1010.3
20260509010523 50 132 2.0 6.0 0.05 0.22 0.22 96 1010.2
20260509010402 50 132 2.0 6.0 0.05 0.22 0.22 96 1010.3
20260509010323 50 131 2.0 6.0 0.05 0.22 0.22 96 1010.4
20260509010202 50 135 2.0 6.0 0.05 0.22 0.22 96 1010.3
20260509010002 50 148 2.0 8.0 0.05 0.22 0.22 96 1010.2
20260509005902 50 149 2.0 8.0 0.04 0.21 0.21 96 1010.2
20260509005802 50 152 2.0 8.0 0.04 0.21 0.21 96 1010.3
20260509005702 50 151 2.0 8.0 0.05 0.21 0.21 96 1010.2
20260509005502 50 147 2.0 8.0 0.05 0.21 0.21 96 1010.1
20260509005305 50 139 2.0 8.0 0.05 0.21 0.21 96 1010.2
20260509005102 50 138 2.0 8.0 0.05 0.21 0.21 96 1010.1
20260509004602 50 126 2.0 6.0 0.06 0.21 0.21 96 1010.3
20260509004402 50 128 2.0 6.0 0.05 0.20 0.20 95 1010.2
20260509004102 50 133 2.0 6.0 0.05 0.20 0.20 95 1010.2
20260509004002 50 133 2.0 6.0 0.05 0.20 0.20 95 1010.1
20260509003902 50 133 2.0 6.0 0.05 0.20 0.20 95 1010.3
20260509003702 50 132 2.0 6.0 0.05 0.19 0.19 95 1010.3
20260509003323 50 127 1.0 6.0 0.05 0.19 0.19 95 1010.5
20260509003123 50 121 1.0 3.0 0.05 0.19 0.19 95 1010.3
20260509002305 50 128 1.0 3.0 0.05 0.18 0.18 95 1010.3
20260509002202 50 131 1.0 3.0 0.05 0.18 0.18 95 1010.4
20260509001902 50 140 1.0 2.0 0.05 0.18 0.18 95 1010.5
20260509001702 50 140 1.0 2.0 0.06 0.18 0.18 95 1010.4
20260509001402 50 138 0.0 2.0 0.05 0.17 0.17 95 1010.4
20260509001302 50 135 0.0 2.0 0.05 0.17 0.17 95 1010.3
20260509001023 50 124 0.0 2.0 0.05 0.17 0.17 95 1010.3
20260509000923 50 123 0.0 2.0 0.05 0.17 0.17 95 1010.3
20260509000602 50 125 1.0 2.0 0.05 0.17 0.17 95 1010.2
20260509000502 50 127 1.0 2.0 0.05 0.17 0.17 95 1010.1
20260509000403 50 131 1.0 2.0 0.05 0.17 0.17 95 1010.3
20260509000204 50 133 1.0 2.0 0.05 0.17 0.17 94 1010.0
20260508235802 50 138 0.0 2.0 0.05 0.17 0.17 95 1010.0
20260508235702 50 141 0.0 2.0 0.04 0.16 0.16 94 1010.4
20260508235502 50 147 0.0 2.0 0.04 0.16 0.16 95 1010.2
20260508235423 50 121 0.0 2.0 0.04 0.16 0.16 94 1010.4
20260508234902 50 119 0.0 2.0 0.05 0.16 0.16 94 1010.3
20260508234802 50 119 0.0 2.0 0.05 0.16 0.16 95 1010.2
20260508234702 50 119 0.0 2.0 0.05 0.15 0.15 94 1010.3
20260508234623 50 119 0.0 2.0 0.05 0.15 0.15 94 1010.2
20260508234402 50 121 0.0 2.0 0.05 0.15 0.15 94 1010.3
20260508234302 50 121 0.0 2.0 0.06 0.15 0.15 94 1010.3
20260508233802 51 123 0.0 2.0 0.06 0.14 0.14 94 1010.2
20260508233402 51 136 0.0 3.0 0.07 0.14 0.14 94 1010.4
20260508232602 51 141 1.0 2.0 0.07 0.13 0.13 94 1010.4
20260508232502 51 141 1.0 2.0 0.07 0.13 0.13 94 1010.1
20260508232402 51 141 1.0 2.0 0.07 0.13 0.13 94 1010.2
20260508232306 51 145 0.0 2.0 0.07 0.13 0.13 93 1010.3
20260508232102 51 147 0.0 2.0 0.08 0.13 0.13 93 1010.3
20260508232002 51 145 0.0 2.0 0.08 0.13 0.13 93 1010.2
20260508231902 51 136 0.0 2.0 0.08 0.13 0.13 93 1010.1
20260508231702 51 0 0.0 0.0 0.07 0.12 0.12 93 1010.2
20260508231602 51 0 0.0 0.0 0.07 0.12 0.12 93 1010.3
20260508231402 51 0 0.0 0.0 0.07 0.12 0.12 93 1010.3
20260508231302 51 0 0.0 0.0 0.08 0.12 0.12 93 1010.2
20260508231102 51 106 0.0 1.0 0.08 0.12 0.12 93 1010.1
20260508231002 51 106 0.0 1.0 0.09 0.12 0.12 93 1010.3
20260508230902 51 110 0.0 1.0 0.09 0.12 0.12 93 1010.2
20260508230802 51 139 0.0 2.0 0.09 0.12 0.12 93 1010.3
20260508230602 51 135 0.0 2.0 0.10 0.12 0.12 93 1010.4
20260508230402 51 139 1.0 3.0 0.10 0.12 0.12 93 1010.5
20260508230302 51 135 1.0 3.0 0.10 0.12 0.12 93 1010.3
20260508225723 51 132 1.0 8.0 0.10 0.12 0.12 93 1010.2
20260508225502 51 135 1.0 8.0 0.10 0.12 0.12 92 1010.2
20260508225402 51 131 1.0 8.0 0.10 0.12 0.12 92 1009.9
20260508225306 51 131 1.0 8.0 0.10 0.12 0.12 92 1010.2
20260508225202 51 129 1.0 8.0 0.10 0.12 0.12 92 1010.1
20260508225102 51 130 1.0 8.0 0.09 0.11 0.11 92 1010.1
20260508225023 51 129 1.0 8.0 0.09 0.11 0.11 92 1010.2
20260508224823 51 127 1.0 6.0 0.09 0.11 0.11 92 1010.2
20260508224602 51 118 1.0 4.0 0.08 0.10 0.10 92 1010.3
20260508224502 51 118 1.0 4.0 0.08 0.10 0.10 92 1010.3
20260508224402 51 120 2.0 4.0 0.08 0.10 0.10 91 1010.2
20260508224202 51 124 1.0 4.0 0.07 0.09 0.09 91 1010.3
20260508224002 51 124 1.0 4.0 0.06 0.08 0.08 91 1010.4
20260508223923 51 125 1.0 4.0 0.06 0.08 0.08 91 1010.5
20260508223802 51 127 1.0 4.0 0.06 0.08 0.08 90 1010.5
20260508223702 51 129 1.0 3.0 0.05 0.07 0.07 90 1010.3
20260508223602 51 128 0.0 2.0 0.05 0.07 0.07 90 1010.4
20260508223202 52 121 0.0 1.0 0.05 0.07 0.07 89 1010.6
20260508223123 52 121 0.0 1.0 0.05 0.07 0.07 89 1010.5
20260508222902 52 121 0.0 1.0 0.04 0.06 0.06 89 1010.3
20260508222802 52 121 0.0 1.0 0.04 0.06 0.06 89 1010.3
20260508222602 52 121 0.0 1.0 0.04 0.06 0.06 88 1010.2
20260508222502 52 121 0.0 1.0 0.04 0.06 0.06 88 1010.3
20260508222402 52 115 0.0 1.0 0.04 0.06 0.06 88 1010.2
20260508222306 52 143 0.0 2.0 0.04 0.06 0.06 88 1010.3
20260508222202 52 155 0.0 2.0 0.03 0.05 0.06 87 1010.4
20260508222102 52 150 0.0 2.0 0.03 0.05 0.05 87 1010.3
20260508222002 52 161 0.0 2.0 0.03 0.05 0.05 87 1010.2
20260508221602 52 149 1.0 2.0 0.03 0.05 0.05 86 1010.2
20260508221402 52 166 1.0 3.0 0.03 0.05 0.05 85 1010.4
20260508221302 52 159 1.0 3.0 0.02 0.04 0.04 85 1010.4
20260508221202 53 160 1.0 3.0 0.02 0.04 0.04 84 1010.4
20260508221102 53 162 1.0 3.0 0.02 0.04 0.04 84 1010.4
20260508221002 53 156 1.0 3.0 0.01 0.03 0.04 84 1010.5
20260508220702 53 164 1.0 3.0 0.00 0.02 0.02 82 1010.3
20260508220623 53 165 1.0 3.0 0.00 0.02 0.02 82 1010.1
20260508220302 53 117 0.0 1.0 0.00 0.02 0.02 82 1009.8
20260508220002 53 124 0.0 1.0 0.00 0.02 0.02 82 1009.7
20260508215902 53 126 0.0 1.0 0.00 0.02 0.02 81 1009.7
20260508215702 53 135 0.0 4.0 0.00 0.02 0.02 81 1009.9
20260508215202 53 148 1.0 4.0 0.00 0.02 0.02 81 1009.8
20260508215102 53 149 1.0 4.0 0.00 0.02 0.02 81 1009.8
20260508215002 53 148 1.0 4.0 0.00 0.02 0.02 81 1009.9
20260508214802 53 145 1.0 4.0 0.00 0.02 0.02 81 1009.9
20260508214623 53 173 1.0 6.0 0.00 0.02 0.02 81 1009.7
20260508214523 53 170 1.0 6.0 0.00 0.02 0.02 81 1009.9
20260508214423 53 174 1.0 6.0 0.00 0.02 0.02 81 1010.0
20260508213902 53 168 2.0 6.0 0.00 0.02 0.02 81 1010.2
20260508213802 53 169 2.0 6.0 0.00 0.02 0.02 81 1010.2
20260508213502 53 160 2.0 4.0 0.00 0.02 0.02 81 1010.2
20260508213402 53 158 2.0 4.0 0.00 0.02 0.02 80 1010.2
20260508213202 53 157 2.0 7.0 0.00 0.02 0.02 81 1010.2
20260508213123 53 155 2.0 7.0 0.00 0.02 0.02 81 1010.2
20260508212902 53 154 2.0 7.0 0.00 0.02 0.02 80 1010.3
20260508212306 53 153 2.0 4.0 0.00 0.02 0.02 81 1010.3
20260508211702 53 149 2.0 7.0 0.00 0.02 0.02 80 1010.2
20260508211602 53 148 2.0 7.0 0.00 0.02 0.02 80 1010.2
20260508211502 53 155 2.0 7.0 0.00 0.02 0.02 80 1010.2
20260508211123 53 162 2.0 7.0 0.00 0.02 0.02 80 1010.1
20260508211002 53 163 2.0 7.0 0.00 0.02 0.02 81 1010.2
20260508210502 53 155 2.0 7.0 0.00 0.02 0.02 80 1010.4
20260508210402 53 158 2.0 7.0 0.00 0.02 0.02 80 1010.4
20260508210323 53 155 2.0 6.0 0.00 0.02 0.02 80 1010.4
20260508210202 53 152 2.0 6.0 0.00 0.02 0.02 80 1010.4
20260508205902 53 169 3.0 6.0 0.00 0.02 0.02 80 1010.6
20260508205702 53 179 3.0 7.0 0.00 0.02 0.02 80 1010.5
20260508205502 54 181 3.0 7.0 0.00 0.02 0.02 80 1010.6
20260508205402 54 173 3.0 7.0 0.00 0.02 0.02 80 1010.4
20260508205102 54 172 3.0 8.0 0.00 0.02 0.02 79 1010.4
20260508204723 54 158 2.0 8.0 0.00 0.02 0.02 79 1010.7
20260508204602 54 154 2.0 8.0 0.00 0.02 0.02 79 1010.7
20260508204402 54 168 2.0 8.0 0.00 0.02 0.02 79 1010.8
20260508204202 54 181 3.0 10.0 0.00 0.02 0.02 79 1010.5
20260508204002 54 186 3.0 10.0 0.00 0.02 0.02 79 1010.7
20260508203902 54 189 3.0 10.0 0.00 0.02 0.02 78 1010.7
20260508203702 54 197 4.0 11.0 0.00 0.02 0.02 78 1010.8
20260508203602 54 196 4.0 13.0 0.00 0.02 0.02 77 1010.7
20260508203302 55 197 5.0 13.0 0.00 0.02 0.02 76 1011.0
20260508203202 55 197 5.0 13.0 0.00 0.02 0.02 75 1011.0
20260508202902 55 192 5.0 13.0 0.00 0.02 0.02 74 1011.0
20260508202823 55 197 5.0 13.0 0.00 0.02 0.02 74 1011.0
20260508202723 55 200 5.0 13.0 0.00 0.02 0.02 74 1011.0
20260508202602 55 198 5.0 11.0 0.00 0.02 0.02 73 1011.0
20260508202502 55 204 5.0 11.0 0.00 0.02 0.02 74 1011.0
20260508202306 55 206 5.0 11.0 0.00 0.02 0.02 73 1011.0
20260508201702 56 186 4.0 13.0 0.00 0.02 0.02 72 1011.0
20260508201502 56 173 3.0 13.0 0.00 0.02 0.02 72 1010.8
20260508201402 57 163 3.0 13.0 0.00 0.02 0.02 71 1010.8
20260508201302 57 168 3.0 13.0 0.00 0.02 0.02 71 1010.7
20260508201202 57 186 3.0 7.0 0.00 0.02 0.02 70 1010.7
20260508200902 57 191 3.0 7.0 0.00 0.02 0.02 69 1010.8
20260508200802 57 196 3.0 7.0 0.00 0.02 0.02 69 1010.8
20260508200603 57 197 3.0 7.0 0.00 0.02 0.02 69 1010.9
20260508200402 57 196 3.0 7.0 0.00 0.02 0.02 69 1010.9
20260508200323 57 188 3.0 7.0 0.00 0.02 0.02 69 1011.0
20260508195902 57 178 3.0 14.0 0.00 0.02 0.02 69 1010.8
20260508195802 57 177 3.0 14.0 0.00 0.02 0.02 69 1011.0
20260508195702 57 179 3.0 14.0 0.00 0.02 0.02 69 1010.9
20260508195602 57 177 4.0 14.0 0.00 0.02 0.02 70 1010.9
20260508195502 57 183 4.0 14.0 0.00 0.02 0.02 69 1010.8
20260508195202 57 180 4.0 14.0 0.00 0.02 0.02 69 1011.0
20260508195102 57 177 4.0 14.0 0.00 0.02 0.02 69 1011.0
20260508194702 58 175 3.0 11.0 0.00 0.02 0.02 68 1011.0
20260508194502 58 177 3.0 11.0 0.00 0.02 0.02 69 1010.9
20260508194402 58 175 3.0 11.0 0.00 0.02 0.02 68 1010.8
20260508194023 58 187 3.0 10.0 0.00 0.02 0.02 67 1010.8
20260508193702 57 200 4.0 10.0 0.00 0.02 0.02 68 1010.9
20260508193602 57 199 4.0 10.0 0.00 0.02 0.02 67 1011.0
20260508193202 57 197 5.0 11.0 0.00 0.02 0.02 68 1010.9
20260508193102 57 193 5.0 11.0 0.00 0.02 0.02 68 1011.0
20260508192902 58 186 5.0 11.0 0.00 0.02 0.02 67 1010.9
20260508192423 58 191 5.0 11.0 0.00 0.02 0.02 66 1010.9
20260508191902 58 197 4.0 11.0 0.00 0.02 0.02 66 1011.1
20260508191602 59 195 3.0 11.0 0.00 0.02 0.02 65 1011.0
20260508191202 60 214 4.0 10.0 0.00 0.02 0.02 64 1010.9
20260508190923 59 241 5.0 15.0 0.00 0.02 0.02 65 1011.0
20260508190502 58 228 5.0 15.0 0.00 0.02 0.02 66 1011.0
20260508190202 59 219 4.0 15.0 0.00 0.02 0.02 65 1011.1
20260508190023 59 193 3.0 10.0 0.00 0.02 0.02 64 1011.2
20260508185702 60 179 3.0 9.0 0.00 0.02 0.02 64 1011.2
20260508185623 59 177 3.0 9.0 0.00 0.02 0.02 65 1011.2
20260508185502 59 178 4.0 9.0 0.00 0.02 0.02 65 1011.1
20260508185402 59 175 3.0 9.0 0.00 0.02 0.02 64 1011.1
20260508185305 59 174 3.0 9.0 0.00 0.02 0.02 63 1011.1
20260508185102 59 178 4.0 9.0 0.00 0.02 0.02 67 1011.1
20260508185002 59 177 4.0 10.0 0.00 0.02 0.02 66 1011.0
20260508184902 59 179 4.0 10.0 0.00 0.02 0.02 65 1011.2
20260508184723 59 193 4.0 10.0 0.00 0.02 0.02 66 1011.3
20260508184302 60 200 4.0 10.0 0.00 0.02 0.02 65 1011.2
20260508184102 60 203 4.0 10.0 0.00 0.02 0.02 64 1010.9
20260508184002 60 203 4.0 10.0 0.00 0.02 0.02 65 1011.1
20260508183702 60 202 4.0 11.0 0.00 0.02 0.02 65 1011.3
20260508183402 60 217 4.0 13.0 0.00 0.02 0.02 63 1011.4
20260508183223 60 216 4.0 13.0 0.00 0.02 0.02 63 1011.3
20260508183102 60 215 5.0 13.0 0.00 0.02 0.02 64 1011.3
20260508182702 59 217 5.0 13.0 0.00 0.02 0.02 64 1011.3
20260508181702 58 210 5.0 14.0 0.00 0.02 0.02 66 1011.5
20260508181323 57 222 6.0 16.0 0.00 0.02 0.02 67 1011.4
20260508181202 57 229 6.0 16.0 0.00 0.02 0.02 68 1011.4
20260508181102 57 222 6.0 16.0 0.00 0.02 0.02 68 1011.7
20260508180802 57 219 5.0 16.0 0.00 0.02 0.02 69 1011.5
20260508180602 57 208 5.0 16.0 0.00 0.02 0.02 68 1011.7
20260508180502 57 205 5.0 16.0 0.00 0.02 0.02 68 1011.8
20260508180323 58 193 5.0 15.0 0.00 0.02 0.02 68 1011.7
20260508175902 57 205 5.0 15.0 0.00 0.02 0.02 69 1011.8
20260508175702 57 212 6.0 15.0 0.00 0.02 0.02 69 1011.8